ATS 1 1 02608U 66110A 10245.36917714 +.00000116 +00000-0 +10000-3 0 01174 2 02608 007.1531 308.5568 0004777 182.9359 177.1009 01.00339697076941 ATS 3 1 03029U 67111A 10245.37567679 -.00000096 00000-0 10000-3 0 6955 2 03029 008.7775 315.5312 0015860 056.1809 359.6496 01.00272805156817 DEBUT (ORIZURU) 1 20479U 90013B 10245.60000981 -.00000023 +00000-0 +26859-4 0 06763 2 20479 099.0215 090.2928 0538688 242.8680 111.6529 12.83696755963799 MAQSAT H 1 25023U 97066A 10245.43246187 .00000197 00000-0 12647-2 0 8366 2 25023 007.9641 325.8440 6499736 282.3724 016.4941 03.09505423145050 MAQSAT B 1 25024U 97066B 10245.81248996 -.00000002 00000-0 -23377-3 0 8831 2 25024 007.9930 322.1708 6509816 289.0879 014.2928 03.08767337144935 TEAMSAT 1 25025U 97066C 10245.20506246 .00000511 00000-0 34925-2 0 8765 2 25025 008.0001 337.8607 6514676 257.4406 027.4706 03.07914296144503 OPAL 1 26063U 00004C 10245.69889253 -.00000026 +00000-0 +11296-4 0 08927 2 26063 100.2049 118.6443 0037305 095.8420 264.7011 14.35904417555451 FALCONSAT 1 26064U 00004D 10245.66857760 +.00000018 +00000-0 +26552-4 0 08519 2 26064 100.2060 116.3535 0038431 103.3431 257.2040 14.35455069555295 PICOSAT 1&2 (TETHERED) 1 26080U 00004H 10246.28684673 .00000038 00000-0 30476-4 0 4144 2 26080 100.1851 146.3345 0032328 034.7111 325.6180 14.40442829555272 PICOSAT 3 1 26091U 00004J 10245.83388213 +.00000213 +00000-0 +80011-4 0 00014 2 26091 100.1814 159.2809 0031812 352.2918 007.7768 14.43617590555284 PICOSAT 4 1 26092U 00004K 10246.18464067 .00000116 00000-0 54887-4 0 8311 2 26092 100.1790 139.8576 0035648 030.6524 329.6726 14.40424895554475 PICOSAT 5 1 26093U 00004L 10245.77249389 +.00000299 +00000-0 +10211-3 0 07340 2 26093 100.1768 167.1306 0032545 331.7435 028.1990 14.45183409555973 PICOSAT 6 1 26094U 00004M 10245.17264715 .00000124 00000-0 58102-4 0 224 2 26094 100.1875 136.6360 0035384 046.0390 314.3699 14.39713164553800 SNAP 1 1 26386U 00033C 10245.64250468 +.00000050 +00000-0 +18675-4 0 00939 2 26386 098.3317 290.0315 0010872 246.6985 113.3074 14.65269524543955 CHAMP 1 26405U 00039B 10246.20117130 .00094637 27245-5 10214-3 0 5886 2 26405 087.2058 131.1200 0004083 086.8005 273.3870 16.09918648580150 PICOSAT 9 1 26930U 01043B 10246.40120757 -.00000074 00000-0 35800-5 0 5255 2 26930 067.0041 337.4258 0003124 220.1459 139.9426 14.30077606466111 PROBA 1 1 26958U 01049B 10246.48315645 -.00000211 00000-0 -14851-4 0 522 2 26958 097.5636 296.6717 0081198 336.9986 022.7594 14.89843499481828 CUTE-1 1 27844U 03031E 10245.56432192 +.00000037 +00000-0 +37247-4 0 09274 2 27844 098.7105 253.4329 0009523 314.0696 045.9696 14.20726551372074 CANX-1 1 27847U 03031H 10245.59046886 .00000029 00000-0 33718-4 0 8438 2 27847 098.7031 254.2762 0008986 292.2877 067.7319 14.21027828372127 CUBESAT XI-IV 1 27848U 03031J 10245.53480324 .00000047 00000-0 42254-4 0 8741 2 27848 098.7157 252.5126 0009494 318.2484 041.7967 14.20518085372029 NAXING 1 1 28221U 04012B 10245.61170655 +.00000060 +00000-0 +12053-4 0 05857 2 28221 097.4551 260.3469 0011567 163.0820 197.0819 14.88054709346103 ST5-A 1 28980U 06008A 10246.14681233 .00006175 00000-0 35482-3 0 3888 2 28980 105.7153 252.4352 2338488 053.1914 326.1680 10.65011029172059 ST5-B 1 28981U 06008B 10245.82142055 +.00012830 +16165-5 +41827-3 0 04663 2 28981 105.6183 283.2680 2292255 016.7118 349.8371 10.82952008173498 ST5-C 1 28982U 06008C 10246.36354408 .00011994 15171-5 46085-3 0 4646 2 28982 105.6550 275.5522 2310613 029.4471 341.8821 10.76958267173069 GENESIS 1 1 29252U 06029A 10246.44266445 .00000132 00000-0 22668-4 0 1373 2 29252 064.5119 017.0534 0026277 335.2033 024.7818 15.03704131227557 FALCONSAT 3 1 30776U 07006E 10246.49464813 .00000512 00000-0 39522-4 0 9069 2 30776 035.4345 288.8315 0000166 089.4567 270.6168 15.03791509191850 GENESIS 2 1 31789U 07028A 10246.56111986 .00000187 00000-0 26762-4 0 8830 2 31789 064.5089 048.3803 0022350 195.5345 164.5082 15.03381108174774 APRIZESAT 4 1 35684U 09041D 10245.85154276 .00000316 00000-0 52628-4 0 3531 2 35684 098.0916 146.7389 0050604 153.7482 206.6324 14.76101413 59021 APRIZESAT 3 1 35686U 09041F 10246.53334413 .00000116 00000-0 20726-4 0 3466 2 35686 098.0962 151.5689 0080299 143.9376 216.7286 14.82601442 59389 PROBA 2 1 36037U 09059B 10245.86207040 -.00000045 +00000-0 +00000-0 0 02556 2 36037 098.3100 073.1018 0014236 040.8364 319.3896 14.51995656044225